User: anonymous   Login
Location: Unspecified
(0.0000°N, 0.0000°E)
Time: 11:01:46
(UTC+00:00)
Language:

S-NET D - Orbit

View from above orbital plane
View from above orbital plane
View from above satellite
View from above satellite

Ground track
Ground track

The orbit data is extracted from the following two-line orbital elements,

1 43186U 18014G   19107.78145004 -.00000107 +00000-0 -42883-5 0  9993
2 43186 097.7136 017.1238 0010073 205.9925 154.0791 14.96616545065872
Epoch (UTC): 17 April 2019 18:45:17
Eccentricity: 0.0010073
inclination: 97.7136°
perigee height: 570 km
apogee height: 584 km
right ascension of ascending node: 17.1238°
argument of perigee: 205.9925°
revolutions per day: 14.96616545
mean anomaly at epoch: 154.0791°
orbit number at epoch: 6587

The dashed part of the orbit path shows where the satellite is in the earth's shadow,  

DLR